Content
SEND FEEDBACK

Daily
Averages
Monthly
Summary
United States of America

BELLEFONTE, DELAWARE


Home > North America > United States > Delaware
Elevation: 82 meters     Latitude: 39 46N     Longitude: 075 31W

WEATHER
 
SELECT A DAY
Number of Records: 201,935;   Date Range: 1/1/95 - 7/7/14
 
SHARE

PRINT THIS DATA

[ ← Previous Day ]
WEATHER ALMANAC - 31 JANUARY, 2013
[ Next Day → ]
[ °F ]   °C
Weather ElementAverageHighLow
Temperature9.4 °C18.3 °C (12:51 am)-1.7 °C (10:51 pm)
Dewpoint1.8 °C16.1 °C (2:51 am)-12.8 °C (9:51 pm)
Humidity61.4 %94 % (2:56 am)34 % (1:51 pm)
Barometer997.6 hPa1012.9 hPa (11:51 pm)986.5 hPa (2:08 am)
Wind Speed34.9 km/h48.1 km/h (12:51 am)
Wind Gust74 km/h (7:51 am)
Weather ElementAverage
Visibility14.3 km
Wind DirectionWSW (253 °)

Weather ElementTotal
Precipitation22.1 mm
Heating Degree Days10.1 (Base 18.3)
Averaged from 33 records on 31 January, 2013
WEATHER CONDITIONS BREAKOUT
WIND DIRECTION BREAKOUT
WEATHER BY HOUR - 31 JANUARY, 2013
[ °F ]   °C
Local TimeTemperatureDewpointHumidityBarometerVisibilityWind DirectionWind SpeedGust SpeedPrecipitationEventsConditions
12:32 AM18 °C15 °C83 %990.5 hPa16.1 kmSouth (190°)42.6 km/h72.3 km/h0.25 mmRainLight Rain
12:51 AM18.3 °C15 °C81 %989.2 hPa16.1 kmSouth (180°)48.1 km/h68.6 km/h0.25 mmOvercast
12:59 AM18 °C15 °C83 %988.8 hPa16.1 kmSouth (180°)44.4 km/h68.6 km/hOvercast
1:51 AM18.3 °C15 °C81 %987.5 hPa16.1 kmSouth (180°)38.9 km/h59.2 km/h0.25 mmRainLight Rain
2:08 AM18 °C15 °C83 %986.5 hPa12.9 kmSouth (180°)42.6 km/h68.6 km/h0.25 mmRainLight Rain
2:46 AM18 °C16 °C88 %987.8 hPa2.9 kmSW (230°)37 km/h62.9 km/h2.29 mmRainHeavy Rain
2:51 AM17.8 °C16.1 °C90 %988.5 hPa2.4 kmWSW (240°)38.9 km/h57.5 km/h5.08 mmRainHeavy Rain
2:56 AM17 °C16 °C94 %988.8 hPa3.2 kmWSW (240°)46.3 km/h64.9 km/h2.03 mmRainHeavy Rain
3:04 AM16 °C14 °C88 %989.5 hPa6.4 kmWSW (240°)42.6 km/h64.9 km/h3.05 mmRainHeavy Rain
3:51 AM15 °C13.3 °C90 %987.8 hPa12.9 kmSW (220°)16.7 km/h31.5 km/h7.37 mmRainLight Rain
4:51 AM14.4 °C12.2 °C87 %987.1 hPa16.1 kmSSW (210°)18.5 km/h46.3 km/h0.76 mmMostly Cloudy
5:25 AM12 °C8 °C77 %989.2 hPa11.3 kmWest (270°)31.5 km/h70.3 km/h0 mmRainLight Rain
5:47 AM12 °C7 °C72 %990.5 hPa16.1 kmWNW (290°)35.2 km/h61.2 km/h0.25 mmOvercast
5:51 AM11.1 °C7.2 °C77 %990.9 hPa16.1 kmWNW (290°)35.2 km/h51.8 km/h0.25 mmOvercast
5:59 AM11 °C6 °C71 %991.2 hPa16.1 kmWest (280°)37 km/h61.2 km/hOvercast
6:51 AM9.4 °C1.7 °C59 %993.6 hPa16.1 kmWNW (290°)31.5 km/h48.1 km/hOvercast
7:51 AM6.7 °C-1.7 °C55 %996.3 hPa16.1 kmWest (280°)42.6 km/h74 km/hMostly Cloudy
8:51 AM6.7 °C-4.4 °C45 %998.6 hPa16.1 kmWest (280°)35.2 km/h55.5 km/hClear
9:51 AM7.2 °C-4.4 °C44 %999.7 hPa16.1 kmWest (280°)44.4 km/h57.5 km/hClear
10:51 AM7.2 °C-5 °C42 %1001 hPa16.1 kmWest (280°)37 km/h51.8 km/hScattered Clouds
11:51 AM7.8 °C-5.6 °C39 %1001.7 hPa16.1 kmWest (270°)42.6 km/h53.8 km/hPartly Cloudy
12:51 PM7.8 °C-6.1 °C37 %1002 hPa16.1 kmWNW (290°)44.4 km/h57.5 km/hMostly Cloudy
1:51 PM6.7 °C-8.3 °C34 %1003 hPa16.1 kmWest (280°)46.3 km/h66.6 km/hScattered Clouds
2:51 PM5.6 °C-8.3 °C37 %1003.7 hPa16.1 kmWest (280°)33.3 km/h48.1 km/hClear
3:51 PM5 °C-8.3 °C38 %1005.4 hPa16.1 kmWest (270°)33.3 km/h61.2 km/hMostly Cloudy
4:51 PM3.3 °C-7.8 °C45 %1006.8 hPa16.1 kmWest (270°)20.4 km/h48.1 km/hMostly Cloudy
5:51 PM2.8 °C-10 °C39 %1008.1 hPa16.1 kmWNW (290°)38.9 km/h55.5 km/hScattered Clouds
6:51 PM2.2 °C-8.9 °C44 %1009.1 hPa16.1 kmWest (260°)25.9 km/hMostly Cloudy
7:51 PM1.7 °C-8.3 °C48 %1010.5 hPa16.1 kmWest (270°)40.7 km/h53.8 km/hClear
8:51 PM0 °C-10 °C48 %1011.9 hPa16.1 kmWNW (290°)33.3 km/h51.8 km/hPartly Cloudy
9:51 PM-0.6 °C-12.8 °C40 %1012.2 hPa16.1 kmWest (280°)20.4 km/h37 km/hClear
10:51 PM-1.7 °C-12.2 °C45 %1012.5 hPa16.1 kmWSW (240°)13 km/hClear
11:51 PM-1.1 °C-12.2 °C43 %1012.9 hPa16.1 kmSW (230°)13 km/hClear
Hourly data recorded from KILG, located 0 kilometers away from Bellefonte, Delaware







STORIES FROM OUR PARTNERS